Regional Weather Roundup
Issued by NWS Kansas City/Pleasant Hill, MO

Home | Current Version | Previous Version | Text Only | Print | Product List | Glossary On
Versions: 1 2 3 4 5 6 7 8 9 10 11 12 13 14 15 16 17 18 19 20 21 22 23 24 25 26 27 28
000
ASUS43 KEAX 250510
RWREAX

WEATHER ROUNDUP FOR EASTERN KANSAS AND NORTHWEST MISSOURI
NATIONAL WEATHER SERVICE KANSAS CITY/PLEASANT HILL MO
1200 AM CDT WED APR 25 2018

KSZ040-057-103>105-MOZ028-029-037-043-250600-
...KANSAS CITY METROPOLITAN AREA...

CITY           SKY/WX    TMP DP  RH WIND       PRES   REMARKS
K.C. INTL      CLOUDY    58  46  64 N15       30.11F
K.C. DOWNTOWN  CLOUDY    61  45  55 NW7       30.11F
LEES SUMMIT    CLOUDY    60  46  59 N17       30.11F
OLATHE - IXD   CLOUDY    59  46  62 N13       30.13F
OLATHE - OJC   CLOUDY    59  45  59 N13       30.11F
LAWRENCE       CLOUDY    58  47  66 NW9       30.14R

$$

MOZ001>008-011>017-020>025-030>033-038>040-044>046-053-054-250600-
...NORTHERN AND CENTRAL MISSOURI...

CITY           SKY/WX    TMP DP  RH WIND       PRES   REMARKS
ST. JOSEPH     CLOUDY    57  48  72 N17       30.13F
MOSBY          CLOUDY    59  45  58 N10       30.11F
WARRENSBURG    CLOUDY    61  45  55 NW10      30.09F
WHITEMAN AFB   NOT AVBL
CLINTON        CLOUDY    63  46  55 N7        30.09S
SEDALIA        CLOUDY    64  45  49 NW13G21   30.08R
WARSAW         NOT AVBL
CHILLICOTHE      N/A     62  41  46 NW5       30.11R
KIRKSVILLE     CLOUDY    59  45  59 N12G22    30.07F

$$

MOZ041-047>049-056>058-063>065-088>090-097-250600-
...EASTERN AND SOUTHERN MISSOURI...

CITY           SKY/WX    TMP DP  RH WIND       PRES   REMARKS
ST. LOUIS INTL PTCLDY    54  43  66 CALM      30.00S
SPIRIT OF STL  CLEAR     48  46  93 W3        29.99F
COLUMBIA       CLOUDY    62  35  36 NW6       30.04S
JEFFERSON CITY PTCLDY    56  42  59 W5        30.03F
ROLLA          CLOUDY    56  44  64 W3        30.04F
OSAGE BEACH    CLOUDY    54  45  71 W5        30.06S
SPRINGFIELD    CLEAR     53  39  59 CALM      30.06F
BRANSON        PTCLDY    57  39  51 CALM      30.08F
JOPLIN         CLEAR     54  43  66 N8        30.10R
WEST PLAINS    CLEAR     53  46  77 CALM      30.05F

$$

IAZ060-094-KSZ022-034>040-054-083-096-NEZ052-066-093-250600-
...KANSAS...SOUTHEAST NEBRASKA AND IOWA...

CITY           SKY/WX    TMP DP  RH WIND       PRES   REMARKS
TOPEKA         CLOUDY    56  49  77 W6        30.15F
MANHATTAN      CLOUDY    51  46  83 NW8       30.21R
EMPORIA        CLOUDY    53  47  79 NW9       30.16F
CHANUTE        CLOUDY    57  47  69 NW9       30.13S
WICHITA        CLOUDY    50  45  83 N16       30.20S
OMAHA          CLOUDY    50  46  86 N12       30.22R
LINCOLN        LGT RAIN  49  47  93 N16       30.24R FOG
FALLS CITY     CLOUDY    54  48  80 N8        30.16R
LAMONI         CLOUDY    57  44  62 N17       30.13R
DES MOINES     MOCLDY    54  42  64 N15       30.16S

$$





USA.gov is the U.S. government's official web portal to all federal, state and local government web resources and services.